This is the latest recevied weather packets stored in our database for station/object SP3WRO-13. If no packets are shown the sender has not sent any weather packets the latest 10 day(s).
| Time | Temp. | Humidity | Pressure | Rain* | Wind** | Luminosity | Snow |
|---|---|---|---|---|---|---|---|
| 1777767268 | 6.67° C | 84% | 1012.1 hPa | - | - | - | - |
| 1777766368 | 7.22° C | 83% | 1012.3 hPa | - | - | - | - |
| 1777765468 | 7.22° C | 82% | 1012.3 hPa | - | - | - | - |
| 1777764568 | 7.22° C | 83% | 1012.4 hPa | - | - | - | - |
| 1777763668 | 7.78° C | 82% | 1012.5 hPa | - | - | - | - |
| 1777762768 | 8.33° C | 80% | 1012.6 hPa | - | - | - | - |
| 1777761868 | 8.33° C | 79% | 1012.7 hPa | - | - | - | - |
| 1777760967 | 8.89° C | 78% | 1012.8 hPa | - | - | - | - |
| 1777760067 | 9.44° C | 76% | 1012.8 hPa | - | - | - | - |
| 1777759167 | 9.44° C | 78% | 1012.9 hPa | - | - | - | - |
| 1777758267 | 9.44° C | 76% | 1012.9 hPa | - | - | - | - |
| 1777757367 | 10.56° C | 74% | 1013 hPa | - | - | - | - |
| 1777756467 | 10.56° C | 76% | 1013.1 hPa | - | - | - | - |
| 1777755567 | 11.11° C | 74% | 1013.1 hPa | - | - | - | - |
| 1777754667 | 11.67° C | 72% | 1013.1 hPa | - | - | - | - |
| 1777753767 | 12.22° C | 70% | 1013 hPa | - | - | - | - |
| 1777752867 | 12.78° C | 69% | 1013.1 hPa | - | - | - | - |
| 1777751966 | 13.33° C | 68% | 1013 hPa | - | - | - | - |
| 1777751066 | 13.89° C | 66% | 1012.9 hPa | - | - | - | - |
| 1777750166 | 16.67° C | 54% | 1013 hPa | - | - | - | - |
| 1777749266 | 17.78° C | 47% | 1012.9 hPa | - | - | - | - |
| 1777748366 | 18.33° C | 46% | 1013 hPa | - | - | - | - |
| 1777747466 | 18.89° C | 44% | 1012.9 hPa | - | - | - | - |
| 1777746566 | 20° C | 42% | 1012.9 hPa | - | - | 2 W/m² | - |
| 1777745666 | 20.56° C | 41% | 1012.9 hPa | - | - | 7 W/m² | - |
* Rain since midnight (hover to see other rain measurements)
** Current wind speed in m/s (hover to see current wind gust speed)